TimeCDT,TemperatureF,Dew PointF,Humidity,Sea Level PressureIn,VisibilityMPH,Wind Direction,Wind SpeedMPH,Gust SpeedMPH,PrecipitationIn,Events,Conditions,WindDirDegrees,DateUTC
12:53 AM,62.1,48.9,62,29.99,10.0,South,6.9,-,N/A,,Clear,180,2012-10-04 05:53:00
1:53 AM,62.1,50.0,65,30.01,10.0,South,8.1,-,N/A,,Clear,190,2012-10-04 06:53:00
2:53 AM,63.0,50.0,63,30.01,10.0,SSW,9.2,-,N/A,,Clear,200,2012-10-04 07:53:00
3:53 AM,62.1,50.0,65,30.00,10.0,SSW,10.4,-,N/A,,Clear,200,2012-10-04 08:53:00
4:53 AM,61.0,51.1,70,30.01,10.0,SSW,12.7,-,N/A,,Clear,200,2012-10-04 09:53:00
5:53 AM,59.0,51.1,75,30.05,10.0,SW,9.2,-,N/A,,Clear,220,2012-10-04 10:53:00
6:53 AM,60.1,52.0,75,30.09,10.0,WSW,5.8,-,N/A,,Clear,240,2012-10-04 11:53:00
7:53 AM,60.1,48.0,64,30.11,10.0,NNW,10.4,-,N/A,,Partly Cloudy,330,2012-10-04 12:53:00
8:53 AM,60.1,46.0,60,30.12,10.0,NW,6.9,-,N/A,,Scattered Clouds,320,2012-10-04 13:53:00
9:53 AM,59.0,44.1,58,30.17,10.0,NNW,11.5,19.6,N/A,,Scattered Clouds,340,2012-10-04 14:53:00
10:53 AM,60.1,44.1,55,30.19,10.0,North,13.8,-,N/A,,Clear,360,2012-10-04 15:53:00
11:53 AM,59.0,44.1,58,30.20,10.0,NNW,12.7,-,N/A,,Mostly Cloudy,330,2012-10-04 16:53:00
12:53 PM,59.0,45.0,60,30.21,10.0,NW,11.5,-,N/A,,Mostly Cloudy,320,2012-10-04 17:53:00
1:53 PM,61.0,44.1,54,30.21,10.0,North,13.8,-,N/A,,Mostly Cloudy,350,2012-10-04 18:53:00
2:53 PM,57.0,41.0,55,30.21,10.0,North,9.2,-,N/A,,Overcast,360,2012-10-04 19:53:00
3:53 PM,54.0,42.1,64,30.23,10.0,North,13.8,-,N/A,,Overcast,350,2012-10-04 20:53:00
4:53 PM,50.0,39.0,66,30.25,10.0,North,11.5,-,N/A,,Overcast,350,2012-10-04 21:53:00
5:53 PM,50.0,37.9,63,30.25,10.0,NNE,10.4,-,N/A,,Overcast,20,2012-10-04 22:53:00
6:53 PM,50.0,37.9,63,30.24,10.0,North,8.1,-,N/A,,Overcast,350,2012-10-04 23:53:00
8:14 PM,48.2,42.8,82,30.24,8.0,North,4.6,-,0.02,Rain-Thunderstorm,Light Rain,350,2012-10-05 01:14:00
8:29 PM,48.2,42.8,82,30.24,10.0,North,3.5,-,0.03,,Overcast,360,2012-10-05 01:29:00
8:53 PM,48.9,44.1,83,30.24,10.0,North,4.6,-,0.03,Rain,Light Rain,360,2012-10-05 01:53:00
9:53 PM,48.9,44.1,83,30.24,10.0,North,5.8,-,0.00,,Overcast,10,2012-10-05 02:53:00
11:53 PM,50.0,45.0,83,30.25,10.0,North,5.8,-,N/A,,Overcast,360,2012-10-05 04:53:00